Location: Larch Mountain
(45.5297°N, 122.0872°W)
Time: 20:55:58
(UTC-07:00)

ISS - All Passes

Search period start: 27 April 2015 00:00
Search period end: 07 May 2015 00:00
Orbit: 395 x 402 km, 51.6° (Epoch: 27 April)

Date Brightness Start Highest point End Pass type
(mag) Time Alt. Az. Time Alt. Az. Time Alt. Az.
27 Apr - 11:42:43 10° SSW 11:45:36 30° SE 11:48:32 10° ENE daylight
27 Apr - 13:18:41 10° W 13:21:52 49° NNW 13:25:04 10° NE daylight
27 Apr - 14:55:52 10° WNW 14:58:42 26° N 15:01:33 10° ENE daylight
27 Apr - 16:32:28 10° NW 16:35:35 41° NNE 16:38:42 10° E daylight
27 Apr - 18:08:51 10° WNW 18:11:57 41° SW 18:15:02 10° SE daylight
28 Apr - 10:49:27 10° S 10:51:37 17° SE 10:53:50 10° E daylight
28 Apr - 12:24:23 10° WSW 12:27:39 78° NNW 12:30:55 10° ENE daylight
28 Apr - 14:01:26 10° WNW 14:04:20 29° N 14:07:15 10° NE daylight
28 Apr - 15:38:17 10° NW 15:41:16 32° NNE 15:44:15 10° ENE daylight
28 Apr - 17:14:35 10° WNW 17:17:51 75° SSW 17:21:06 10° SE daylight
28 Apr - 18:52:33 10° WSW 18:53:44 11° SW 18:54:49 10° SSW daylight
29 Apr - 11:30:15 10° SW 11:33:27 61° SSE 11:36:41 10° ENE daylight
29 Apr - 13:06:56 10° W 13:09:57 34° NNW 13:13:00 10° NE daylight
29 Apr - 14:44:01 10° NW 14:46:53 27° N 14:49:45 10° ENE daylight
29 Apr - 16:20:23 10° WNW 16:23:38 65° NNE 16:26:52 10° ESE daylight
29 Apr - 17:57:11 10° W 17:59:44 21° SW 18:02:14 10° S daylight
30 Apr - 10:36:22 10° SSW 10:39:19 33° SE 10:42:18 10° ENE daylight
30 Apr - 12:12:27 10° W 12:15:36 46° NNW 12:18:46 10° NE daylight
30 Apr - 13:49:36 10° WNW 13:52:27 26° N 13:55:17 10° ENE daylight
30 Apr - 15:26:10 10° NW 15:29:18 43° NNE 15:32:26 10° E daylight
30 Apr - 17:02:34 10° WNW 17:05:38 37° SW 17:08:41 10° SSE daylight
01 May - 09:42:55 10° S 09:45:12 18° SE 09:47:34 10° E daylight
01 May - 11:18:01 10° WSW 11:21:15 72° NNW 11:24:31 10° ENE daylight
01 May - 12:55:05 10° WNW 12:57:58 28° N 13:00:51 10° NE daylight
01 May - 14:31:53 10° NW 14:34:53 32° NNE 14:37:53 10° E daylight
01 May - 16:08:10 10° WNW 16:11:26 69° SSW 16:14:40 10° SE daylight
01 May - 17:46:38 10° WSW 17:47:17 10° SW 17:47:49 10° SW daylight
02 May - 10:23:44 10° SW 10:26:57 66° SSE 10:30:12 10° ENE daylight
02 May - 12:00:29 10° W 12:03:29 33° NNW 12:06:29 10° NE daylight
02 May - 13:37:31 10° NW 13:40:23 28° N 13:43:16 10° ENE daylight
02 May - 15:13:51 10° WNW 15:17:06 69° NNE 15:20:21 10° ESE daylight
02 May - 16:50:45 10° W 16:53:11 19° SW 16:55:34 10° S daylight
03 May - 09:29:42 10° SSW 09:32:41 35° SE 09:35:43 10° ENE daylight
03 May - 11:05:52 10° W 11:08:59 44° NNW 11:12:08 10° NE daylight
03 May - 12:43:01 10° WNW 12:45:51 26° N 12:48:40 10° ENE daylight
03 May - 14:19:32 10° NW 14:22:41 45° NNE 14:25:50 10° E daylight
03 May - 15:55:59 10° WNW 15:58:59 34° SW 16:01:58 10° SSE daylight
04 May - 08:36:03 10° S 08:38:28 20° SE 08:40:55 10° E daylight
04 May - 10:11:18 10° WSW 10:14:32 68° NNW 10:17:47 10° ENE daylight
04 May - 11:48:23 10° WNW 11:51:15 28° N 11:54:08 10° NE daylight
04 May - 13:25:10 10° NW 13:28:10 33° NNE 13:31:11 10° E daylight
04 May - 15:01:26 10° WNW 15:04:40 64° SSW 15:07:54 10° SE daylight
05 May - 07:43:35 10° SE 07:44:16 11° SE 07:45:04 10° ESE daylight
05 May - 09:16:53 10° SW 09:20:07 71° SSE 09:23:21 10° ENE daylight
05 May - 10:53:41 10° W 10:56:39 32° NNW 10:59:39 10° NE daylight
05 May - 12:30:41 10° NW 12:33:34 28° N 12:36:27 10° ENE daylight
05 May - 14:07:00 10° WNW 14:10:16 74° NNE 14:13:30 10° ESE daylight
05 May - 15:43:58 10° W 15:46:17 18° SW 15:48:33 10° S daylight
06 May - 08:22:42 10° SSW 08:25:44 38° SE 08:28:46 10° ENE daylight
06 May - 09:58:56 10° W 10:02:03 42° NNW 10:05:11 10° NE daylight
06 May - 11:36:05 10° WNW 11:38:54 26° N 11:41:44 10° ENE daylight
06 May - 13:12:34 10° NW 13:15:44 47° NNE 13:18:53 10° E daylight
06 May - 14:49:02 10° WNW 14:51:59 32° SW 14:54:55 10° SSE daylight
